{"data":{"norad_id":68161,"epoch":"2026-05-25T00:42:49.618080Z","epoch_age_seconds":66237,"freshness":"FRESH","line1":"1 68161U 26049V   26145.02974095  .00022447  00000+0  69544-3 0  9996","line2":"2 68161  97.2844 166.6453 0001381 100.9689 259.1710 15.33449603 11347","mean_motion":15.33449603,"eccentricity":0.0001381,"inclination_deg":97.2844,"raan_deg":166.6453,"arg_perigee_deg":100.9689,"mean_anomaly_deg":259.171,"bstar":0.00069544,"rev_number":1134,"period_min":93.905922775866,"perigee_km":464.58436888209,"apogee_km":466.47458956366,"semimajor_km":6843.6664792229,"source":"CELESTRAK","updated_at":"2026-05-25T13:38:21.850543Z"}}